| time (UTC) | temp F | wind direction | speed knots | gust knots | rain 1hr in | rain 24hr in | rain mn in | humidity % | barometer mb |
| 20260506072916 | 48 | 0.0 | 0.0 | 0.00 | 0.00 | 0.00 | 95 | ||
| 20260506071917 | 47 | 0.0 | 0.0 | 0.00 | 0.00 | 0.00 | 95 | ||
| 20260506070913 | 47 | 0.0 | 0.0 | 0.00 | 0.00 | 0.00 | 96 | ||
| 20260506061912 | 45 | 0.0 | 0.0 | 0.00 | 0.00 | 0.00 | 98 | ||
| 20260506060913 | 44 | 0.0 | 0.0 | 0.00 | 0.00 | 0.00 | 98 | ||
| 20260506050917 | 44 | 0.0 | 0.0 | 0.00 | 0.00 | 0.00 | 99 | ||
| 20260506044914 | 44 | 0.0 | 0.0 | 0.00 | 0.00 | 0.00 | 98 | ||
| 20260506043912 | 44 | 0.0 | 0.0 | 0.00 | 0.00 | 0.00 | 98 | ||
| 20260506042912 | 44 | 0.0 | 0.0 | 0.00 | 0.00 | 0.00 | 98 | ||
| 20260506041913 | 44 | 0.0 | 0.0 | 0.00 | 0.00 | 0.00 | 98 | ||
| 20260506040912 | 44 | 0.0 | 0.0 | 0.00 | 0.00 | 0.00 | 98 | ||
| 20260506035913 | 44 | 0.0 | 0.0 | 0.00 | 0.00 | 0.00 | 98 | ||
| 20260506034912 | 44 | 0.0 | 0.0 | 0.00 | 0.00 | 0.00 | 98 | ||
| 20260506033912 | 45 | 0.0 | 0.0 | 0.00 | 0.00 | 0.00 | 97 | ||
| 20260506032912 | 45 | 0.0 | 0.0 | 0.00 | 0.00 | 0.00 | 97 | ||
| 20260506031912 | 45 | 0.0 | 0.0 | 0.00 | 0.00 | 0.00 | 97 | ||
| 20260506030913 | 45 | 0.0 | 0.0 | 0.00 | 0.00 | 0.00 | 96 | ||
| 20260506025914 | 46 | 0.0 | 0.0 | 0.00 | 0.00 | 0.00 | 96 | ||
| 20260506024912 | 46 | 0.0 | 0.0 | 0.00 | 0.00 | 0.00 | 96 | ||
| 20260506023912 | 46 | 0.0 | 0.0 | 0.00 | 0.00 | 0.00 | 95 | ||
| 20260506022913 | 46 | 0.0 | 0.0 | 0.00 | 0.00 | 0.00 | 95 | ||
| 20260506021912 | 47 | 0.0 | 0.0 | 0.00 | 0.00 | 0.00 | 95 | ||
| 20260506020912 | 47 | 0.0 | 0.0 | 0.00 | 0.00 | 0.00 | 95 | ||
| 20260506015914 | 47 | 0.0 | 0.0 | 0.00 | 0.00 | 0.00 | 94 | ||
| 20260506014913 | 47 | 0.0 | 0.0 | 0.00 | 0.00 | 0.00 | 94 | ||
| 20260506013912 | 47 | 0.0 | 0.0 | 0.00 | 0.00 | 0.00 | 94 | ||
| 20260506011912 | 48 | 0.0 | 0.0 | 0.00 | 0.00 | 0.00 | 93 | ||
| 20260506005914 | 48 | 0.0 | 0.0 | 0.00 | 0.00 | 0.00 | 93 | ||
| 20260506004914 | 48 | 0.0 | 0.0 | 0.00 | 0.00 | 0.00 | 93 | ||
| 20260506003913 | 48 | 0.0 | 0.0 | 0.00 | 0.00 | 0.00 | 92 | ||
| 20260506000913 | 49 | 0.0 | 0.0 | 0.00 | 0.00 | 0.00 | 91 | ||
| 20260505235913 | 49 | 0.0 | 0.0 | 0.00 | 0.00 | 0.00 | 91 | ||
| 20260505234911 | 49 | 0.0 | 0.0 | 0.00 | 0.00 | 0.00 | 90 | ||
| 20260505230913 | 50 | 0.0 | 0.0 | 0.00 | 0.00 | 0.00 | 88 | ||
| 20260505225913 | 50 | 0.0 | 0.0 | 0.00 | 0.00 | 0.00 | 88 | ||
| 20260505224913 | 50 | 0.0 | 0.0 | 0.00 | 0.00 | 0.00 | 87 | ||
| 20260505223915 | 50 | 0.0 | 0.0 | 0.00 | 0.00 | 0.00 | 87 | ||
| 20260505222914 | 50 | 0.0 | 0.0 | 0.00 | 0.00 | 0.00 | 86 | ||
| 20260505221913 | 51 | 0.0 | 0.0 | 0.00 | 0.00 | 0.00 | 86 | ||
| 20260505215912 | 51 | 0.0 | 0.0 | 0.00 | 0.00 | 0.00 | 83 | ||
| 20260505214913 | 51 | 0.0 | 0.0 | 0.00 | 0.00 | 0.00 | 83 | ||
| 20260505213912 | 51 | 0.0 | 0.0 | 0.00 | 0.00 | 0.00 | 82 | ||
| 20260505212912 | 50 | 0.0 | 0.0 | 0.00 | 0.00 | 0.00 | 78 | ||
| 20260505211912 | 51 | 0.0 | 0.0 | 0.00 | 0.00 | 0.00 | 78 | ||
| 20260505210912 | 51 | 0.0 | 0.0 | 0.00 | 0.00 | 0.00 | 78 | ||
| 20260505205913 | 51 | 0.0 | 0.0 | 0.00 | 0.00 | 0.00 | 78 | ||
| 20260505204912 | 51 | 0.0 | 0.0 | 0.00 | 0.00 | 0.00 | 74 | ||
| 20260505202914 | 53 | 0.0 | 0.0 | 0.00 | 0.00 | 0.00 | 76 | ||
| 20260505201912 | 52 | 0.0 | 0.0 | 0.00 | 0.00 | 0.00 | 72 | ||
| 20260505200913 | 52 | 0.0 | 0.0 | 0.00 | 0.00 | 0.00 | 74 | ||
| 20260505195913 | 53 | 0.0 | 0.0 | 0.00 | 0.00 | 0.00 | 71 | ||
| 20260505194913 | 54 | 0.0 | 0.0 | 0.00 | 0.00 | 0.00 | 74 | ||
| 20260505193913 | 55 | 0.0 | 0.0 | 0.00 | 0.00 | 0.00 | 71 | ||
| 20260505192912 | 55 | 0.0 | 0.0 | 0.00 | 0.00 | 0.00 | 68 | ||
| 20260505191913 | 55 | 0.0 | 0.0 | 0.00 | 0.00 | 0.00 | 68 | ||
| 20260505190914 | 55 | 0.0 | 0.0 | 0.00 | 0.00 | 0.00 | 67 | ||
| 20260505185913 | 56 | 0.0 | 0.0 | 0.00 | 0.00 | 0.00 | 64 | ||
| 20260505184913 | 56 | 0.0 | 0.0 | 0.00 | 0.00 | 0.00 | 61 | ||
| 20260505183912 | 57 | 0.0 | 0.0 | 0.00 | 0.00 | 0.00 | 59 | ||
| 20260505181913 | 59 | 0.0 | 0.0 | 0.00 | 0.00 | 0.00 | 60 | ||
| 20260505180912 | 59 | 0.0 | 0.0 | 0.00 | 0.00 | 0.00 | 62 | ||
| 20260505175912 | 60 | 0.0 | 0.0 | 0.00 | 0.00 | 0.00 | 61 | ||
| 20260505173912 | 61 | 0.0 | 0.0 | 0.00 | 0.00 | 0.00 | 60 | ||
| 20260505170915 | 62 | 0.0 | 0.0 | 0.00 | 0.00 | 0.00 | 59 | ||
| 20260505165913 | 62 | 0.0 | 0.0 | 0.00 | 0.00 | 0.00 | 60 | ||
| 20260505164913 | 64 | 0.0 | 0.0 | 0.00 | 0.00 | 0.00 | 59 | ||
| 20260505163914 | 64 | 0.0 | 0.0 | 0.00 | 0.00 | 0.00 | 57 | ||
| 20260505160912 | 68 | 0.0 | 0.0 | 0.00 | 0.00 | 0.00 | 53 | ||
| 20260505152912 | 70 | 0.0 | 0.0 | 0.00 | 0.00 | 0.00 | 51 | ||
| 20260505151913 | 70 | 0.0 | 0.0 | 0.00 | 0.00 | 0.00 | 50 | ||
| 20260505124913 | 80 | 0.0 | 0.0 | 0.00 | 0.00 | 0.00 | 54 | ||
| 20260505123911 | 77 | 0.0 | 0.0 | 0.00 | 0.00 | 0.00 | 57 | ||
| 20260505120912 | 72 | 0.0 | 0.0 | 0.00 | 0.00 | 0.00 | 55 | ||
| 20260505114913 | 71 | 0.0 | 0.0 | 0.00 | 0.00 | 0.00 | 57 | ||
| 20260505113913 | 71 | 0.0 | 0.0 | 0.00 | 0.00 | 0.00 | 58 | ||
| 20260505112913 | 71 | 0.0 | 0.0 | 0.00 | 0.00 | 0.00 | 61 | ||
| 20260505111914 | 72 | 0.0 | 0.0 | 0.00 | 0.00 | 0.00 | 58 | ||
| 20260505110914 | 73 | 0.0 | 0.0 | 0.00 | 0.00 | 0.00 | 54 | ||
| 20260505101912 | 69 | 0.0 | 0.0 | 0.00 | 0.00 | 0.00 | 72 | ||
| 20260505100913 | 67 | 0.0 | 0.0 | 0.00 | 0.00 | 0.00 | 79 | ||
| 20260505095912 | 65 | 0.0 | 0.0 | 0.00 | 0.00 | 0.00 | 80 | ||
| 20260505093913 | 62 | 0.0 | 0.0 | 0.00 | 0.00 | 0.00 | 85 | ||
| 20260505092913 | 62 | 0.0 | 0.0 | 0.00 | 0.00 | 0.00 | 88 | ||
| 20260505091912 | 62 | 0.0 | 0.0 | 0.00 | 0.00 | 0.00 | 89 | ||
| 20260505090912 | 62 | 0.0 | 0.0 | 0.00 | 0.00 | 0.00 | 90 | ||
| 20260505085912 | 61 | 0.0 | 0.0 | 0.00 | 0.00 | 0.00 | 92 | ||
| 20260505084912 | 60 | 0.0 | 0.0 | 0.00 | 0.00 | 0.00 | 92 | ||
| 20260505083912 | 60 | 0.0 | 0.0 | 0.00 | 0.00 | 0.00 | 93 | ||
| 20260505082912 | 58 | 0.0 | 0.0 | 0.00 | 0.00 | 0.00 | 95 | ||
| 20260505081912 | 57 | 0.0 | 0.0 | 0.00 | 0.00 | 0.00 | 96 | ||
| 20260505080913 | 57 | 0.0 | 0.0 | 0.00 | 0.00 | 0.00 | 97 | ||
| 20260505075914 | 55 | 0.0 | 0.0 | 0.00 | 0.00 | 0.00 | 99 | ||
| 20260505074914 | 53 | 0.0 | 0.0 | 0.00 | 0.00 | 0.00 | 99 | ||
| 20260505073913 | 52 | 0.0 | 0.0 | 0.00 | 0.00 | 0.00 | 99 |